Theta_e
324 323 322 322 323 324 324 323 323 322 323 323 323 323 323 323 323 324 324 324 324 324 324 323 322 322 322 323 323 322 322 321 321 320 320 320 320 320 319 319 318 317
324 323 321 321 321 322 323 324 323 322 322 322 323 322 323 323 323 324 324 324 323 323 324 323 322 322 322 322 322 322 322 321 321 321 320 319 320 319 319 319 319 319
322 322 322 321 321 321 322 322 322 323 322 322 323 323 323 323 323 323 324 324 323 323 323 323 323 322 322 322 322 321 321 321 321 321 320 319 319 319 319 319 319 319
321 322 322 322 321 321 321 321 321 322 322 321 322 322 323 323 323 323 323 319 323 323 323 323 322 323 322 322 321 321 321 321 322 321 320 320 319 319 319 319 318 318
319 320 321 321 321 321 320 321 320 320 321 321 321 321 322 322 321 322 322 322 322 322 322 322 322 322 322 321 321 320 320 320 321 321 320 320 320 319 319 318 318 317
317 319 320 321 321 321 321 320 320 320 320 320 321 321 322 321 321 321 321 321 321 321 321 321 321 322 322 321 321 321 320 320 320 320 320 320 320 321 321 320 318 317
316 317 318 320 320 320 321 321 320 319 320 321 319 321 320 320 320 321 321 321 321 320 321 321 321 321 322 321 321 320 321 320 320 320 319 319 319 320 321 320 319 318
314 315 318 317 319 319 319 319 319 319 320 319 320 320 320 321 321 321 321 321 321 321 321 321 322 322 321 321 320 320 319 321 320 319 318 319 319 318 319 320 319 318
312 314 315 315 317 317 316 317 318 318 318 319 319 318 319 320 320 320 320 320 320 320 321 320 321 321 321 320 320 319 319 319 320 318 318 318 318 318 318 319 318 317
310 311 311 312 313 316 314 314 316 316 317 317 318 317 318 319 319 320 319 319 319 318 318 319 318 318 318 319 320 318 318 319 318 318 319 318 318 318 318 318 317 316
305 306 307 307 309 309 309 309 311 314 316 316 315 316 317 316 317 316 317 317 318 318 318 317 317 317 318 318 318 318 318 318 318 318 319 319 319 319 312 317 317 316
301 302 304 304 305 306 307 308 311 311 313 315 315 317 314 314 315 314 315 314 314 315 315 316 315 314 315 316 316 316 317 317 317 318 319 319 319 319 318 318 317 316
299 300 302 303 303 303 304 305 306 306 307 308 307 308 308 308 307 309 308 310 313 313 315 315 315 313 315 315 315 315 315 315 315 315 316 318 318 318 318 318 317 317
297 298 300 301 301 301 302 302 302 302 303 304 303 305 305 305 306 310 308 308 311 311 314 313 313 314 314 314 315 315 314 314 314 314 315 316 316 316 316 316 317 316
297 298 300 298 298 298 298 298 299 299 300 301 301 304 308 306 304 305 306 308 309 309 309 308 311 313 314 313 312 312 314 315 315 315 314 314 315 315 315 315 315 316
298 298 298 298 297 297 296 295 296 296 296 297 298 298 299 301 300 300 302 304 306 307 308 310 311 314 305 303 304 311 312 314 313 313 313 313 313 313 313 313 314 314
296 296 296 296 295 295 295 295 295 295 295 295 295 295 297 296 296 299 300 301 303 306 308 310 312 312 304 305 304 303 308 313 313 313 313 313 313 313 312 311 312 313
295 294 294 292 293 293 292 292 292 292 292 293 293 293 294 293 295 297 298 299 301 302 303 305 307 302 303 303 303 304 302 309 313 314 314 314 314 313 313 313 312 311
295 295 293 292 292 292 291 291 291 290 290 290 291 291 289 291 293 294 295 295 297 298 299 301 303 300 302 301 301 301 302 303 311 312 312 313 313 313 312 312 310 308
294 293 292 291 291 290 290 290 289 291 290 290 290 289 289 290 289 290 291 292 294 295 296 297 299 298 299 300 300 300 300 300 307 310 311 311 311 312 312 311 309 307
292 291 291 291 290 289 289 289 289 290 290 291 291 290 290 291 290 289 290 290 291 292 293 294 296 296 298 298 299 299 299 299 305 306 308 309 310 310 310 310 309 307
292 290 290 289 289 289 289 289 288 289 290 290 289 288 289 288 288 288 290 290 290 290 291 292 293 295 295 296 297 298 298 300 302 304 305 306 307 308 308 307 306 305
291 291 290 290 289 290 290 290 290 290 289 289 289 289 288 288 289 289 289 289 289 289 290 291 291 292 294 295 295 296 297 299 301 301 302 303 304 304 305 305 304 303
290 290 289 289 288 289 289 289 289 289 289 289 288 289 290 290 289 290 289 288 289 290 289 290 291 290 293 294 294 295 295 298 299 299 299 299 299 300 302 302 301 294
291 290 290 289 288 288 288 288 288 288 288 287 287 288 289 289 289 289 289 289 288 289 288 289 290 290 292 293 293 294 293 295 296 297 296 297 298 298 299 300 300 295
290 290 289 288 288 288 288 288 288 288 288 288 288 288 288 288 287 288 288 289 288 288 288 289 289 290 289 292 293 293 294 293 295 294 294 295 295 296 296 297 297 298
Wind_Speed
10 9 9 9 9 9 9 8 8 8 8 8 8 8 9 8 8 9 11 11 12 12 12 12 11 11 10 10 10 10 10 11 9 8 11 12 12 14 13 14 13 12
11 10 8 8 8 8 9 8 8 8 8 8 7 7 7 7 8 9 10 11 11 12 12 11 11 12 12 11 10 11 10 10 11 8 9 11 12 13 15 16 15 12
8 8 9 9 10 9 8 6 7 7 7 7 6 7 6 7 8 8 9 10 11 11 11 11 11 11 12 12 11 10 10 11 12 11 10 10 10 11 12 12 12 14
8 9 9 9 8 7 6 6 7 7 5 6 7 6 6 6 7 8 9 10 10 10 10 10 11 10 10 11 10 10 10 10 11 10 11 9 9 10 11 10 11 12
7 7 7 7 6 6 6 6 7 7 7 7 5 6 6 6 6 7 8 8 8 8 8 9 9 9 9 9 9 9 9 10 10 10 10 11 10 10 9 9 11 13
5 5 5 6 6 6 7 7 7 6 6 6 7 6 6 6 6 7 7 8 8 8 8 9 9 10 10 10 10 11 10 10 11 12 13 13 12 11 10 11 12 13
5 5 5 5 6 6 7 7 6 6 6 6 5 7 6 6 6 7 7 8 8 9 9 9 10 11 10 10 11 11 12 12 12 13 14 13 12 13 13 13 14 14
5 4 5 4 5 6 7 6 5 6 6 5 7 7 6 7 8 7 7 8 8 9 10 11 11 11 11 10 11 12 12 11 12 14 14 14 13 14 14 13 12 14
4 4 5 5 6 5 6 6 6 6 6 7 7 7 7 8 8 8 8 8 9 10 10 11 12 12 11 11 12 13 14 13 13 13 14 15 15 15 14 12 12 13
4 4 4 5 6 6 6 6 6 6 6 7 7 7 8 8 8 8 8 9 10 10 10 11 11 11 10 10 12 12 13 14 13 13 14 14 15 14 13 12 14 13
4 4 4 5 5 4 5 5 5 5 6 6 7 7 7 8 8 7 8 8 9 10 10 10 10 9 10 10 11 11 12 12 12 13 13 14 14 14 13 13 13 13
4 4 4 4 4 4 5 5 5 5 7 6 6 7 6 6 7 7 7 7 7 7 8 8 7 7 9 10 11 10 11 11 11 12 13 13 13 13 13 12 12 12
3 3 3 3 3 4 3 3 4 4 4 5 5 5 5 5 5 5 5 6 7 8 9 9 9 8 10 10 10 10 11 11 11 11 12 11 12 12 12 12 12 12
3 2 1 1 1 1 2 2 3 4 4 4 3 4 4 5 5 6 6 6 7 8 9 8 9 9 9 10 10 11 10 11 11 11 11 11 11 11 11 11 12 12
2 1 0 1 2 2 3 4 4 4 4 4 4 5 5 5 4 4 5 6 7 6 7 6 7 9 8 8 8 8 9 10 10 10 10 11 11 10 10 11 11 11
1 1 1 1 1 2 3 3 3 4 4 4 4 4 4 5 5 5 5 6 6 7 7 7 8 7 7 11 10 8 7 8 7 8 9 9 10 10 10 10 10 10
1 2 2 2 3 3 3 3 4 4 3 4 4 4 5 5 4 5 6 6 8 8 9 9 10 10 14 14 14 15 11 10 10 10 9 9 10 10 11 10 10 10
1 1 2 3 3 4 4 4 4 4 4 4 4 5 5 4 5 6 7 6 7 8 9 10 10 12 13 15 16 17 15 12 12 12 12 12 12 13 13 12 13 12
1 2 3 3 4 4 3 3 3 4 4 5 6 6 5 5 6 6 7 6 7 9 10 9 10 11 14 16 15 15 16 15 12 13 12 13 12 12 12 11 10 10
1 2 3 4 4 4 4 4 4 5 5 5 5 5 5 6 5 7 7 7 8 9 10 9 9 10 14 15 15 15 15 13 11 12 12 13 13 12 12 12 11 10
4 4 4 4 5 5 5 5 5 5 5 6 6 6 7 8 7 6 7 6 7 8 9 10 9 12 14 15 15 15 14 12 11 11 11 12 12 12 12 12 11 11
5 5 4 5 5 5 5 5 5 5 6 6 4 5 6 5 6 5 8 8 7 7 9 12 8 11 15 15 15 14 13 10 9 10 12 12 12 11 12 12 10 11
5 5 5 5 5 6 6 6 7 7 5 4 6 6 7 6 7 7 7 7 8 7 9 12 10 8 13 13 12 14 12 10 9 10 11 12 12 10 11 12 11 11
3 3 4 5 5 6 7 7 7 6 6 5 6 8 9 7 7 8 7 5 7 9 7 11 13 6 10 11 12 12 11 10 9 10 11 10 10 10 11 11 12 14
2 2 3 3 4 5 5 6 7 7 7 5 6 6 8 8 7 8 9 8 6 9 10 11 13 9 8 11 11 11 9 8 9 8 11 11 10 12 11 11 12 11
2 2 3 4 4 5 4 5 5 6 6 6 6 6 7 6 6 7 9 10 7 7 9 8 10 11 5 10 10 11 12 9 7 8 11 11 10 11 11 10 10 10
Wind_Direction
213 213 218 217 220 220 220 217 215 212 210 205 206 209 206 207 195 195 201 205 207 210 209 208 205 208 210 210 213 217 220 224 226 215 216 215 218 220 224 227 226 226
210 207 209 214 221 221 222 214 213 212 216 212 212 203 202 194 200 194 197 204 207 210 211 209 206 205 207 209 211 215 218 220 228 224 222 215 219 219 225 225 227 230
208 204 203 208 216 220 218 212 209 213 213 215 210 204 202 196 199 199 199 201 205 209 211 210 210 208 208 210 212 215 215 218 224 227 229 228 223 223 226 224 227 227
211 207 208 213 213 214 206 205 216 216 213 216 215 206 200 200 195 197 203 201 204 208 211 211 213 213 212 213 213 218 219 222 225 226 231 235 234 233 232 227 228 228
214 212 211 209 209 206 201 205 211 209 210 215 213 207 203 205 195 197 201 200 200 204 206 211 214 215 213 214 211 217 219 225 226 226 228 231 233 233 235 229 229 229
229 218 211 207 201 197 205 210 213 205 208 211 213 205 207 199 198 201 198 198 200 202 205 208 210 212 208 210 209 213 213 218 221 222 226 229 230 229 232 232 234 233
229 220 217 203 201 199 202 212 211 207 209 209 199 211 200 201 206 207 202 199 200 205 208 210 211 213 212 211 212 215 216 217 219 221 225 229 229 231 230 233 234 236
235 222 213 207 202 206 209 210 205 204 209 205 207 211 195 205 207 207 204 202 204 209 213 215 215 215 214 212 215 217 218 216 220 221 225 228 225 230 228 230 231 236
236 225 211 209 208 212 210 208 207 207 200 205 211 210 207 205 210 208 204 204 210 213 214 217 217 219 216 213 216 219 220 220 220 219 222 225 225 229 228 228 233 234
247 243 225 218 211 216 212 211 209 208 207 208 211 207 212 217 211 210 206 208 212 216 216 217 218 219 219 220 223 222 225 227 226 226 226 228 229 231 230 227 230 233
261 250 232 236 230 227 224 224 219 217 216 217 215 219 218 215 223 214 214 214 218 220 222 223 223 219 221 225 227 227 227 228 227 228 229 231 231 231 228 228 229 230
280 287 274 257 244 238 231 224 224 223 225 229 218 226 229 226 221 227 222 228 229 232 231 234 231 225 224 226 227 230 234 235 235 234 234 233 234 232 231 229 231 231
282 269 260 268 272 272 286 290 279 266 254 249 249 243 242 247 250 245 247 235 239 236 235 232 230 224 226 227 229 229 232 235 237 238 238 239 236 233 233 232 232 232
253 257 278 284 315 345 346 330 326 319 299 293 303 288 277 267 256 248 251 245 245 242 243 238 237 234 230 229 229 230 231 235 234 236 238 239 240 238 235 232 232 231
252 255 23 360 344 337 322 308 300 292 295 297 294 283 274 272 276 280 280 274 273 268 270 263 253 247 242 238 239 242 237 240 239 240 239 240 241 240 236 235 233 231
261 311 285 263 263 256 256 259 265 274 278 282 276 275 286 292 300 294 285 275 278 277 271 267 260 257 256 257 246 238 243 247 247 244 241 242 244 244 241 235 233 232
217 248 249 263 262 259 263 265 264 265 273 276 276 279 278 280 282 277 264 261 261 262 262 256 254 251 251 253 251 247 246 251 252 252 246 246 246 243 244 236 234 232
257 251 250 264 271 260 258 257 258 265 274 273 279 279 273 282 277 265 268 263 263 262 259 259 260 259 255 252 247 245 243 247 253 253 252 250 248 246 247 245 240 236
329 328 305 309 295 282 274 278 273 283 283 281 270 259 267 263 256 259 259 262 260 265 263 261 262 260 258 257 252 246 241 236 244 246 249 249 246 244 245 244 241 237
338 340 328 312 313 315 311 300 296 280 273 268 275 282 266 267 263 256 257 253 251 253 260 259 258 262 259 261 260 254 249 242 245 247 246 249 251 251 250 246 239 235
13 359 344 330 330 327 325 314 297 294 295 286 279 271 269 268 268 268 259 254 255 255 262 263 257 253 253 253 254 255 254 247 250 250 250 251 249 248 252 252 246 238
3 354 348 344 338 337 335 321 312 295 297 293 280 272 264 269 275 260 270 268 260 259 264 267 263 253 257 260 261 259 255 253 250 249 252 251 250 247 247 248 247 242
354 351 344 344 342 340 332 326 323 318 309 301 305 294 288 282 272 268 262 266 271 259 262 271 270 249 254 260 262 264 264 263 255 251 251 252 252 252 251 249 243 238
346 354 343 331 338 331 321 317 313 307 305 311 310 308 306 297 293 294 280 263 269 273 257 274 281 252 245 256 258 254 249 256 260 263 262 256 260 254 251 251 248 239
340 357 340 322 316 306 306 309 307 303 299 301 293 287 283 294 298 294 294 284 265 268 269 265 277 278 254 259 257 257 252 256 259 259 263 259 260 261 251 250 251 240
344 341 312 306 296 293 292 283 283 298 299 300 293 281 285 288 285 283 286 287 283 275 274 263 274 281 259 254 253 250 245 247 250 256 261 268 263 264 272 262 253 251